User: anonymous   Login
Location: Unspecified
(0.0000°N, 0.0000°E)
Time: 22:20:58
(UTC+00:00)
Language:

STARLINK-2513 - Orbit

View from above orbital plane
View from above orbital plane
View from above satellite
View from above satellite

Ground track
Ground track

The orbit is defined by the following mean orbital elements,

1 48317U          26145.54757973 +.00000000 +00000-0 +73579-4 0 00006
2 48317  53.1585  90.7084 0001104  96.3972 263.7155 15.31711987    04
Epoch (UTC): 25 May 2026 13:08:30
Eccentricity: 0.0001104
inclination: 53.1585°
perigee height: 470 km
apogee height: 471 km
right ascension of ascending node: 90.7084°
argument of perigee: 96.3972°
revolutions per day: 15.31711987
mean anomaly at epoch: 263.7155°

The dashed part of the orbit path shows where the satellite is in the earth's shadow,  

DLR